• In Belarus
  • List of Countries
  • For 7 days
  • Water Temperature
  • Satellite Maps
  • Weather Map
  • Weather Widgets
  • user-avatar
    Login

    Hourly Weather Evora

    Today, 20 March, Wednesday

    Time Temperature Precipitation Wind Pressure Humidity
    00:00 +9°C° 0 mm 3 mps 744 mmHg 66%
    01:00 +8°C° 0 mm 3 mps 744 mmHg 67%
    02:00 +8°C° 0 mm 3 mps 744 mmHg 67%
    03:00 +7°C° 0 mm 4 mps 744 mmHg 64%
    04:00 +7°C° 0 mm 4 mps 744 mmHg 61%
    05:00 +6°C° 0 mm 4 mps 744 mmHg 59%
    06:00 +7°C° 0 mm 5 mps 744 mmHg 57%
    07:00 +9°C° 0 mm 5 mps 744 mmHg 54%
    08:00 +10°C° 0 mm 6 mps 745 mmHg 51%
    09:00 +13°C° 0 mm 6 mps 745 mmHg 48%
    10:00 +14°C° 0 mm 6 mps 745 mmHg 45%
    11:00 +16°C° 0 mm 5 mps 745 mmHg 42%
    12:00 +16°C° 0 mm 5 mps 744 mmHg 41%
    13:00 +17°C° 0 mm 5 mps 744 mmHg 41%
    14:00 +18°C° 0 mm 4 mps 744 mmHg 41%
    15:00 +17°C° 0 mm 4 mps 744 mmHg 46%
    16:00 +16°C° 0 mm 3 mps 743 mmHg 52%
    17:00 +14°C° 0 mm 3 mps 743 mmHg 57%
    18:00 +12°C° 0 mm 3 mps 744 mmHg 59%
    19:00 +11°C° 0 mm 3 mps 744 mmHg 60%
    20:00 +9°C° 0 mm 3 mps 744 mmHg 61%
    21:00 +9°C° 0 mm 3 mps 744 mmHg 62%
    22:00 +8°C° 0 mm 3 mps 744 mmHg 63%
    23:00 +7°C° 0 mm 3 mps 744 mmHg 63%

    Tomorrow, 21 March, Thursday

    Time Temperature Precipitation Wind Pressure Humidity
    00:00 +7°C° 0 mm 2 mps 744 mmHg 66%
    01:00 +7°C° 0 mm 2 mps 744 mmHg 68%
    02:00 +6°C° 0 mm 2 mps 744 mmHg 70%
    03:00 +6°C° 0 mm 2 mps 744 mmHg 71%
    04:00 +5°C° 0 mm 2 mps 744 mmHg 72%
    05:00 +5°C° 0 mm 2 mps 744 mmHg 73%
    06:00 +7°C° 0 mm 3 mps 744 mmHg 68%
    07:00 +9°C° 0 mm 3 mps 745 mmHg 63%
    08:00 +11°C° 0 mm 3 mps 745 mmHg 59%
    09:00 +13°C° 0 mm 4 mps 745 mmHg 52%
    10:00 +15°C° 0 mm 4 mps 745 mmHg 46%
    11:00 +18°C° 0 mm 4 mps 745 mmHg 40%
    12:00 +18°C° 0 mm 4 mps 745 mmHg 38%
    13:00 +19°C° 0 mm 4 mps 744 mmHg 35%
    14:00 +19°C° 0 mm 4 mps 744 mmHg 33%
    15:00 +18°C° 0 mm 4 mps 744 mmHg 40%
    16:00 +17°C° 0 mm 4 mps 743 mmHg 46%
    17:00 +14°C° 0 mm 3 mps 743 mmHg 53%
    18:00 +13°C° 0 mm 3 mps 744 mmHg 52%
    19:00 +11°C° 0 mm 3 mps 744 mmHg 51%
    20:00 +10°C° 0 mm 3 mps 744 mmHg 50%
    21:00 +9°C° 0 mm 3 mps 744 mmHg 51%
    22:00 +8°C° 0 mm 3 mps 744 mmHg 52%
    23:00 +8°C° 0 mm 2 mps 744 mmHg 53%

    Day after tomorrow, 22 March, Friday

    Time Temperature Precipitation Wind Pressure Humidity
    00:00 +7°C° 0 mm 2 mps 744 mmHg 54%
    01:00 +7°C° 0 mm 3 mps 744 mmHg 56%
    02:00 +5°C° 0 mm 3 mps 744 mmHg 57%
    03:00 +5°C° 0 mm 3 mps 744 mmHg 57%
    04:00 +5°C° 0 mm 3 mps 744 mmHg 58%
    05:00 +4°C° 0 mm 3 mps 744 mmHg 58%
    06:00 +7°C° 0 mm 3 mps 744 mmHg 56%
    07:00 +8°C° 0 mm 4 mps 744 mmHg 53%
    08:00 +11°C° 0 mm 4 mps 745 mmHg 51%
    09:00 +13°C° 0 mm 5 mps 745 mmHg 46%
    10:00 +15°C° 0 mm 5 mps 745 mmHg 42%
    11:00 +17°C° 0 mm 6 mps 745 mmHg 37%
    12:00 +17°C° 0 mm 5 mps 744 mmHg 37%
    13:00 +19°C° 0 mm 5 mps 743 mmHg 36%
    14:00 +19°C° 0 mm 5 mps 743 mmHg 36%
    15:00 +17°C° 0 mm 5 mps 743 mmHg 42%
    16:00 +17°C° 0 mm 4 mps 743 mmHg 48%
    17:00 +16°C° 0 mm 3 mps 742 mmHg 54%
    18:00 +14°C° 0 mm 3 mps 743 mmHg 56%
    19:00 +12°C° 0 mm 3 mps 743 mmHg 57%
    20:00 +10°C° 0 mm 3 mps 743 mmHg 59%
    21:00 +10°C° 0 mm 3 mps 743 mmHg 60%
    22:00 +9°C° 0 mm 2 mps 743 mmHg 61%
    23:00 +9°C° 0 mm 2 mps 743 mmHg 62%

    23 March, Saturday

    Time Temperature Precipitation Wind Pressure Humidity
    00:00 +8°C° 0 mm 2 mps 743 mmHg 63%
    01:00 +8°C° 0 mm 2 mps 742 mmHg 65%
    02:00 +7°C° 0 mm 2 mps 742 mmHg 67%
    03:00 +7°C° 0 mm 2 mps 742 mmHg 69%
    04:00 +6°C° 0 mm 2 mps 742 mmHg 71%
    05:00 +5°C° 0 mm 3 mps 741 mmHg 73%
    06:00 +8°C° 0 mm 3 mps 742 mmHg 68%
    07:00 +10°C° 0 mm 3 mps 742 mmHg 64%
    08:00 +12°C° 0 mm 4 mps 742 mmHg 59%
    09:00 +14°C° 0 mm 4 mps 742 mmHg 54%
    10:00 +18°C° 0 mm 4 mps 742 mmHg 49%
    11:00 +20°C° 0 mm 5 mps 741 mmHg 44%
    12:00 +20°C° 0 mm 4 mps 741 mmHg 43%
    13:00 +21°C° 0 mm 4 mps 740 mmHg 41%
    14:00 +21°C° 0 mm 3 mps 739 mmHg 40%
    15:00 +20°C° 0 mm 3 mps 739 mmHg 46%
    16:00 +19°C° 0 mm 2 mps 739 mmHg 52%
    17:00 +19°C° 0 mm 1 mps 739 mmHg 58%
    18:00 +17°C° 0 mm 2 mps 739 mmHg 58%
    19:00 +16°C° 0 mm 2 mps 739 mmHg 58%
    20:00 +15°C° 0 mm 2 mps 739 mmHg 58%
    21:00 +13°C° 0 mm 2 mps 739 mmHg 59%
    22:00 +12°C° 0 mm 2 mps 739 mmHg 61%
    23:00 +10°C° 0 mm 2 mps 738 mmHg 62%

    24 March, Sunday

    Time Temperature Precipitation Wind Pressure Humidity
    00:00 +10°C° 0 mm 3 mps 738 mmHg 65%
    01:00 +9°C° 0 mm 3 mps 738 mmHg 67%
    02:00 +9°C° 0 mm 3 mps 738 mmHg 69%
    03:00 +8°C° 0 mm 3 mps 738 mmHg 71%
    04:00 +8°C° 0 mm 3 mps 738 mmHg 72%
    05:00 +8°C° 0 mm 3 mps 738 mmHg 73%
    06:00 +8°C° 0 mm 4 mps 738 mmHg 70%
    07:00 +11°C° 0 mm 4 mps 739 mmHg 66%
    08:00 +13°C° 0 mm 5 mps 739 mmHg 63%
    09:00 +15°C° 0 mm 4 mps 739 mmHg 57%
    10:00 +18°C° 0 mm 4 mps 739 mmHg 51%
    11:00 +20°C° 0 mm 4 mps 739 mmHg 45%
    12:00 +20°C° 0 mm 3 mps 739 mmHg 46%
    13:00 +20°C° 0 mm 3 mps 738 mmHg 47%
    14:00 +20°C° 0 mm 3 mps 738 mmHg 48%
    15:00 +19°C° 0 mm 2 mps 738 mmHg 51%
    16:00 +18°C° 0 mm 2 mps 738 mmHg 55%
    17:00 +18°C° 0 mm 1 mps 737 mmHg 59%
    18:00 +16°C° 0.3 mm 1 mps 738 mmHg 65%
    19:00 +14°C° 0.3 mm 2 mps 738 mmHg 71%
    20:00 +13°C° 0.3 mm 2 mps 738 mmHg 76%
    21:00 +12°C° 0.3 mm 2 mps 738 mmHg 81%
    22:00 +12°C° 0.3 mm 1 mps 738 mmHg 86%
    23:00 +10°C° 0.3 mm 0 mps 738 mmHg 91%

    25 March, Monday

    Time Temperature Precipitation Wind Pressure Humidity
    00:00 +11°C° 0 mm 1 mps 737 mmHg 91%
    01:00 +10°C° 0 mm 1 mps 737 mmHg 91%
    02:00 +9°C° 0 mm 2 mps 737 mmHg 91%
    03:00 +9°C° 0 mm 2 mps 737 mmHg 91%
    04:00 +8°C° 0 mm 3 mps 737 mmHg 91%
    05:00 +8°C° 0 mm 3 mps 737 mmHg 91%
    06:00 +9°C° 0 mm 3 mps 737 mmHg 87%
    07:00 +11°C° 0 mm 4 mps 737 mmHg 83%
    08:00 +12°C° 0 mm 4 mps 738 mmHg 78%
    09:00 +14°C° 0 mm 4 mps 737 mmHg 71%
    10:00 +17°C° 0 mm 4 mps 737 mmHg 63%
    11:00 +19°C° 0 mm 4 mps 737 mmHg 55%
    12:00 +19°C° 0.5 mm 3 mps 737 mmHg 57%
    13:00 +20°C° 0.5 mm 3 mps 736 mmHg 58%
    14:00 +20°C° 0.5 mm 3 mps 736 mmHg 59%
    15:00 +19°C° 0.3 mm 3 mps 736 mmHg 64%
    16:00 +18°C° 0.3 mm 2 mps 735 mmHg 68%
    17:00 +18°C° 0.3 mm 2 mps 735 mmHg 73%
    18:00 +16°C° 0 mm 3 mps 736 mmHg 76%
    19:00 +13°C° 0 mm 3 mps 736 mmHg 80%
    20:00 +12°C° 0 mm 3 mps 736 mmHg 84%
    21:00 +11°C° 0 mm 3 mps 736 mmHg 85%
    22:00 +11°C° 0 mm 3 mps 736 mmHg 86%
    23:00 +10°C° 0 mm 3 mps 736 mmHg 87%
    Show more